Regional Weather Roundup
Issued by NWS Raleigh/Durham, NC

Home | Current Version | Previous Version | Text Only | Print | Product List | Glossary On
Versions: 1 2 3 4 5 6 7 8 9 10 11 12 13 14 15 16 17 18 19 20 21 22 23 24 25 26 27 28 29 30 31 32 33 34 35 36 37 38 39 40 41 42 43 44 45 46 47 48 49 50
000
ASUS42 KRAH 020010
RWRRAH
NORTH CAROLINA WEATHER ROUNDUP
NATIONAL WEATHER SERVICE RALEIGH NC
800 PM EDT FRI AUG 01 2014

NOTE: "FAIR" INDICATES FEW OR NO CLOUDS BELOW 12,000 FEET WITH NO
SIGNIFICANT WEATHER AND/OR OBSTRUCTIONS TO VISIBILITY.

NCZ001-053-055-056-065-067-020100-
WESTERN NORTH CAROLINA

CITY           SKY/WX    TMP DP  RH WIND       PRES   REMARKS
ASHEVILLE      MOCLDY    67  59  75 S3        30.15R
JEFFERSON      DRIZZLE   60  57  90 E6        30.20S
MORGANTON      CLOUDY    65  63  92 N3        30.18R
HICKORY        LGT RAIN  64  63  96 N7        30.12S FOG
RUTHERFORDTON  CLOUDY    66  63  88 N6        30.12S
MOUNT AIRY     DRIZZLE   65  63  92 CALM      30.13R
BOONE          CLOUDY    60  59  98 E5        30.20R
$$

NCZ021-022-025-041-071-084-088-020100-
CENTRAL NORTH CAROLINA

CITY           SKY/WX    TMP DP  RH WIND       PRES   REMARKS
CHARLOTTE      CLOUDY    67  63  87 N9        30.09R
GREENSBORO     LGT RAIN  65  64  97 NE13      30.11R FOG
WINSTON-SALEM  LGT RAIN  66  64  93 NE7       30.13R FOG
RALEIGH-DURHAM DRIZZLE   65  62  90 NE8       30.10S FOG
FORT BRAGG     CLOUDY    69  68  97 N6        30.06R
FAYETTEVILLE   CLOUDY    71  68  90 N9        30.05R
BURLINGTON     LGT RAIN  66  63  90 NE7       30.12R FOG
LAURINBURG     CLOUDY    70  67  90 NE9       30.06R
$$

NCZ011-015-027-028-043-044-047-080-103-020100-
NORTHEASTERN NORTH CAROLINA

CITY           SKY/WX    TMP DP  RH WIND       PRES   REMARKS
ROCKY MT-WILSO LGT RAIN  67  66  97 W7        30.08S FOG
GREENVILLE     LGT RAIN  70  70 100 CALM      30.07F
WASHINGTON     CLOUDY    74  72  95 SE6       30.06S
ELIZABETH CITY CLOUDY    73  71  93 E8        30.09R
MANTEO         NOT AVBL
CAPE HATTERAS  LGT RAIN  75  74  96 SE13      30.08F
$$

NCZ078-087-090-091-093-098-101-020100-
SOUTHEASTERN NORTH CAROLINA

CITY           SKY/WX    TMP DP  RH WIND       PRES   REMARKS
LUMBERTON      LGT RAIN  72  70  93 N9        30.04R
GOLDSBORO      LGT RAIN  70  70 100 N6        30.03S
KINSTON        CLOUDY    73  73 100 E6        30.05F
KENANSVILLE    CLOUDY    75  74  94 CALM      30.05S
NEW BERN       CLOUDY    77  73  87 SE6       30.06S
CHERRY POINT   CLOUDY    75  72  90 SE6       30.07R
BEAUFORT       CLOUDY    77  74  90 E7        30.06S
JACKSONVILLE   CLOUDY    77  74  90 E9        30.03F
WILMINGTON     CLOUDY    78  73  84 CALM      30.03S
$$



USA.gov is the U.S. government's official web portal to all federal, state and local government web resources and services.